TimeAKST,TemperatureF,Dew PointF,Humidity,Sea Level PressureIn,VisibilityMPH,Wind Direction,Wind SpeedMPH,Gust SpeedMPH,PrecipitationIn,Events,Conditions,WindDirDegrees,DateUTC
12:53 AM,-0.9,-5.1,83,29.86,7.0,East,18.4,-,N/A,,Clear,80,2013-01-04 09:53:00
1:53 AM,-0.0,-5.1,79,29.85,4.0,East,20.7,-,N/A,Snow,Blowing Snow,80,2013-01-04 10:53:00
2:07 AM,-0.4,-5.8,78,29.85,3.0,East,20.7,-,N/A,Snow,Blowing Snow,80,2013-01-04 11:07:00
2:53 AM,-0.0,-5.1,79,29.86,3.0,East,19.6,-,N/A,Snow,Blowing Snow,80,2013-01-04 11:53:00
3:53 AM,-0.0,-4.0,83,29.86,3.0,East,19.6,-,N/A,Snow,Blowing Snow,80,2013-01-04 12:53:00
3:59 AM,-0.4,-4.0,85,29.86,2.5,East,20.7,-,N/A,Snow,Blowing Snow,80,2013-01-04 12:59:00
4:53 AM,-0.0,-9999,N/A,29.87,3.0,East,20.7,-,N/A,Snow,Blowing Snow,90,2013-01-04 13:53:00
5:53 AM,1.0,-9999,N/A,29.87,3.0,East,19.6,-,N/A,Snow,Blowing Snow,90,2013-01-04 14:53:00
6:37 AM,1.4,-9999,N/A,29.87,3.0,East,20.7,-,N/A,Snow,Blowing Snow,80,2013-01-04 15:37:00
6:53 AM,1.0,-9999,N/A,29.88,3.0,East,18.4,-,N/A,Snow,Blowing Snow,80,2013-01-04 15:53:00
7:53 AM,1.9,-9999,N/A,29.89,3.0,East,16.1,-,N/A,Snow,Blowing Snow,90,2013-01-04 16:53:00
8:53 AM,3.7,0.5,86,29.90,3.0,East,18.4,-,N/A,Snow,Blowing Snow,80,2013-01-04 17:53:00
9:53 AM,3.0,-0.0,87,29.91,3.0,East,19.6,-,0.00,Snow,Light Snow,80,2013-01-04 18:53:00
10:00 AM,6.8,3.2,85,29.91,1.2,East,21.9,-,0.00,Snow,Light Snow,80,2013-01-04 19:00:00
10:53 AM,8.1,3.9,83,29.92,0.8,East,24.2,-,0.00,Snow,Light Snow,90,2013-01-04 19:53:00
11:18 AM,8.6,5.0,85,29.92,0.5,East,23.0,-,0.00,Snow,Snow,80,2013-01-04 20:18:00
11:53 AM,9.0,5.0,84,29.94,0.8,East,25.3,-,0.00,Snow,Light Snow,90,2013-01-04 20:53:00
12:31 PM,8.6,5.0,85,29.95,0.5,East,23.0,33.4,0.00,Snow,Snow,90,2013-01-04 21:31:00
12:41 PM,8.6,5.0,85,29.95,0.8,East,24.2,-,0.00,Snow,Light Snow,90,2013-01-04 21:41:00
12:53 PM,8.1,5.0,87,29.96,0.8,East,25.3,-,0.00,Snow,Light Snow,90,2013-01-04 21:53:00
1:07 PM,8.6,5.0,85,29.95,0.5,East,23.0,34.5,0.00,Snow,Snow,90,2013-01-04 22:07:00
1:33 PM,8.6,5.0,85,29.96,1.0,East,21.9,29.9,0.00,Snow,Light Snow,90,2013-01-04 22:33:00
1:48 PM,8.6,3.2,79,29.96,3.0,East,21.9,-,0.00,Snow,Light Snow,80,2013-01-04 22:48:00
1:53 PM,8.1,3.9,83,29.97,3.0,East,21.9,-,0.00,Snow,Light Snow,80,2013-01-04 22:53:00
2:00 PM,8.6,3.2,79,29.96,3.0,East,20.7,-,N/A,Snow,Blowing Snow,80,2013-01-04 23:00:00
2:53 PM,9.0,6.1,88,29.97,1.0,East,26.5,33.4,0.00,Snow,Light Snow,80,2013-01-04 23:53:00
3:26 PM,8.6,6.8,92,29.97,0.8,East,25.3,34.5,0.00,Snow,Light Snow,80,2013-01-05 00:26:00
3:53 PM,8.1,5.0,87,29.98,0.2,East,27.6,-,0.00,Snow,Heavy Snow,80,2013-01-05 00:53:00
4:53 PM,7.0,3.9,87,29.99,0.2,East,28.8,35.7,0.00,Snow,Heavy Snow,80,2013-01-05 01:53:00
5:05 PM,6.8,3.2,85,29.98,0.2,East,28.8,35.7,0.00,Snow,Heavy Snow,80,2013-01-05 02:05:00
5:53 PM,5.0,1.9,87,29.99,0.5,East,28.8,-,0.00,Snow,Snow,80,2013-01-05 02:53:00
6:08 PM,3.2,1.4,92,29.99,0.8,East,25.3,34.5,0.00,Snow,Light Snow,80,2013-01-05 03:08:00
6:51 PM,3.2,-0.4,85,30.00,0.8,East,25.3,-,0.00,Snow,Light Snow,80,2013-01-05 03:51:00
6:53 PM,3.9,-0.0,84,30.01,0.8,East,26.5,-,0.00,Snow,Light Snow,80,2013-01-05 03:53:00
7:25 PM,3.2,-0.4,85,30.00,0.8,East,26.5,-,0.00,Snow,Light Snow,80,2013-01-05 04:25:00
7:39 PM,3.2,-0.4,85,30.00,1.0,East,26.5,32.2,0.00,Snow,Blowing Snow,80,2013-01-05 04:39:00
7:53 PM,3.0,-0.9,84,30.01,1.0,East,26.5,-,0.00,Snow,Blowing Snow,80,2013-01-05 04:53:00
8:53 PM,1.9,-2.0,83,30.02,1.0,East,24.2,-,N/A,Snow,Blowing Snow,80,2013-01-05 05:53:00
9:10 PM,3.2,-2.2,78,30.01,3.0,East,23.0,-,N/A,Snow,Blowing Snow,80,2013-01-05 06:10:00
9:25 PM,3.2,-2.2,78,30.01,2.0,East,25.3,-,N/A,Snow,Blowing Snow,80,2013-01-05 06:25:00
9:46 PM,3.2,-0.4,85,30.01,1.5,East,26.5,-,N/A,Snow,Blowing Snow,80,2013-01-05 06:46:00
9:53 PM,3.9,-0.9,80,30.01,1.5,East,28.8,-,N/A,Snow,Blowing Snow,80,2013-01-05 06:53:00
10:42 PM,5.0,1.4,85,30.01,0.8,East,26.5,-,N/A,Snow,Blowing Snow,80,2013-01-05 07:42:00
10:53 PM,3.9,-0.0,84,30.02,1.5,ENE,23.0,-,N/A,Snow,Blowing Snow,70,2013-01-05 07:53:00
11:09 PM,3.2,-0.4,85,30.01,6.0,ENE,21.9,-,N/A,,Scattered Clouds,70,2013-01-05 08:09:00
11:53 PM,1.9,-2.0,83,30.02,6.0,ENE,19.6,-,N/A,Snow,Blowing Snow,70,2013-01-05 08:53:00